contact:dominique.lefevre@mio.osupytheas.fr, maurice.libes@osupytheas.fr, didier.mallarino@osupytheas.fr
Project:EMSO http://www.emso-fr.org/EMSO-France
Depth: 2436.0 m
Title:EMSO Ligure Ouest : Data MII capteur CSTAR
DateTime,Latitude,Longitude,Instrument_Serial,Reference_Counts,Signal_Counts,Corrected_Signal_raw_counts,Calculated_Beam_c_inverse_meters,Internal_thermistor_counts
DateTime,Latitude,Longitude,Instrument_Serial,Reference_Counts,Signal_Counts,Corrected_Signal_raw_counts,Calculated_Beam_c_inverse_meters,Internal_thermistor_counts
2019-07-28T00:00:58,42.805,6.029,CST-1368DR,8509,11901,15447,0.044,551
2019-07-28T00:04:00,42.805,6.029,CST-1368DR,8509,11902,15448,0.043,551
2019-07-28T00:07:01,42.805,6.029,CST-1368DR,8509,11902,15448,0.043,551
2019-07-28T00:10:03,42.805,6.029,CST-1368DR,8509,11902,15448,0.043,551
2019-07-28T00:13:05,42.805,6.029,CST-1368DR,8509,11899,15445,0.044,551
2019-07-28T00:16:06,42.805,6.029,CST-1368DR,8509,11901,15447,0.044,550
2019-07-28T00:19:08,42.805,6.029,CST-1368DR,8509,11901,15447,0.044,551
2019-07-28T00:22:10,42.805,6.029,CST-1368DR,8509,11901,15446,0.044,551
2019-07-28T00:25:11,42.805,6.029,CST-1368DR,8509,11902,15448,0.043,551
2019-07-28T00:28:13,42.805,6.029,CST-1368DR,8509,11899,15444,0.044,551
2019-07-28T00:31:14,42.805,6.029,CST-1368DR,8509,11902,15448,0.043,551
2019-07-28T00:34:16,42.805,6.029,CST-1368DR,8509,11899,15444,0.044,551
2019-07-28T00:37:18,42.805,6.029,CST-1368DR,8509,11901,15446,0.044,550
2019-07-28T00:40:19,42.805,6.029,CST-1368DR,8509,11900,15445,0.044,551
2019-07-28T00:43:21,42.805,6.029,CST-1368DR,8509,11900,15446,0.044,551
2019-07-28T00:46:23,42.805,6.029,CST-1368DR,8509,11901,15446,0.044,551
2019-07-28T00:49:24,42.805,6.029,CST-1368DR,8509,11902,15449,0.043,550
2019-07-28T00:52:26,42.805,6.029,CST-1368DR,8509,11900,15446,0.044,551
2019-07-28T00:55:28,42.805,6.029,CST-1368DR,8509,11902,15448,0.043,551
2019-07-28T00:58:29,42.805,6.029,CST-1368DR,8509,11900,15445,0.044,551
2019-07-28T01:01:31,42.805,6.029,CST-1368DR,8509,11900,15446,0.044,551
2019-07-28T01:04:33,42.805,6.029,CST-1368DR,8509,11901,15447,0.044,550
2019-07-28T01:07:34,42.805,6.029,CST-1368DR,8509,11897,15442,0.045,551
2019-07-28T01:10:36,42.805,6.029,CST-1368DR,8508,11898,15444,0.044,551
2019-07-28T01:13:38,42.805,6.029,CST-1368DR,8508,11899,15446,0.044,551
2019-07-28T01:16:39,42.805,6.029,CST-1368DR,8508,11895,15441,0.045,551
2019-07-28T01:19:41,42.805,6.029,CST-1368DR,8508,11900,15447,0.044,551
2019-07-28T01:22:42,42.805,6.029,CST-1368DR,8508,11901,15448,0.043,551
2019-07-28T01:25:44,42.805,6.029,CST-1368DR,8508,11897,15444,0.044,551
2019-07-28T01:28:46,42.805,6.029,CST-1368DR,8508,11901,15448,0.043,551
2019-07-28T01:31:47,42.805,6.029,CST-1368DR,8508,11899,15446,0.044,550
2019-07-28T01:34:49,42.805,6.029,CST-1368DR,8508,11901,15449,0.043,551
2019-07-28T01:37:51,42.805,6.029,CST-1368DR,8508,11900,15448,0.043,551
2019-07-28T01:40:52,42.805,6.029,CST-1368DR,8508,11899,15446,0.044,551
2019-07-28T01:43:54,42.805,6.029,CST-1368DR,8508,11901,15448,0.043,551
2019-07-28T01:46:55,42.805,6.029,CST-1368DR,8508,11900,15447,0.044,551
2019-07-28T01:49:57,42.805,6.029,CST-1368DR,8508,11901,15448,0.043,551
2019-07-28T01:52:59,42.805,6.029,CST-1368DR,8508,11894,15439,0.046,551
2019-07-28T01:56:00,42.805,6.029,CST-1368DR,8508,11900,15447,0.044,551
2019-07-28T01:59:02,42.805,6.029,CST-1368DR,8508,11895,15441,0.045,551
2019-07-28T02:02:04,42.805,6.029,CST-1368DR,8508,11897,15443,0.045,551
2019-07-28T02:05:05,42.805,6.029,CST-1368DR,8508,11899,15446,0.044,551
2019-07-28T02:08:07,42.805,6.029,CST-1368DR,8508,11900,15447,0.044,551
2019-07-28T02:11:09,42.805,6.029,CST-1368DR,8508,11899,15446,0.044,551
2019-07-28T02:14:10,42.805,6.029,CST-1368DR,8508,11899,15446,0.044,551
2019-07-28T02:17:12,42.805,6.029,CST-1368DR,8508,11900,15448,0.043,551
2019-07-28T02:20:14,42.805,6.029,CST-1368DR,8508,11900,15447,0.044,551
2019-07-28T02:23:15,42.805,6.029,CST-1368DR,8508,11900,15447,0.044,551
2019-07-28T02:26:17,42.805,6.029,CST-1368DR,8508,11899,15446,0.044,551
2019-07-28T02:29:18,42.805,6.029,CST-1368DR,8508,11895,15441,0.045,551
2019-07-28T02:32:20,42.805,6.029,CST-1368DR,8508,11900,15447,0.044,551
2019-07-28T02:35:22,42.805,6.029,CST-1368DR,8508,11898,15445,0.044,551
2019-07-28T02:38:23,42.805,6.029,CST-1368DR,8508,11900,15447,0.044,551
2019-07-28T02:41:25,42.805,6.029,CST-1368DR,8508,11901,15448,0.043,551
2019-07-28T02:44:27,42.805,6.029,CST-1368DR,8508,11899,15446,0.044,551
2019-07-28T02:47:28,42.805,6.029,CST-1368DR,8508,11897,15443,0.045,551
2019-07-28T02:50:30,42.805,6.029,CST-1368DR,8508,11901,15448,0.043,551
2019-07-28T02:53:32,42.805,6.029,CST-1368DR,8508,11899,15446,0.044,550
2019-07-28T02:56:33,42.805,6.029,CST-1368DR,8508,11900,15447,0.044,551
2019-07-28T02:59:35,42.805,6.029,CST-1368DR,8508,11899,15445,0.044,551
2019-07-28T03:02:37,42.805,6.029,CST-1368DR,8508,11900,15447,0.044,551
2019-07-28T03:05:38,42.805,6.029,CST-1368DR,8507,11899,15447,0.044,550
2019-07-28T03:08:40,42.805,6.029,CST-1368DR,8507,11898,15447,0.044,551
2019-07-28T03:11:41,42.805,6.029,CST-1368DR,8507,11899,15447,0.044,551
2019-07-28T03:14:43,42.805,6.029,CST-1368DR,8507,11899,15448,0.043,551
2019-07-28T03:17:45,42.805,6.029,CST-1368DR,8507,11899,15447,0.044,551
2019-07-28T03:20:46,42.805,6.029,CST-1368DR,8507,11898,15447,0.044,551
2019-07-28T03:23:48,42.805,6.029,CST-1368DR,8507,11899,15448,0.043,551
2019-07-28T03:26:50,42.805,6.029,CST-1368DR,8507,11897,15445,0.044,551
2019-07-28T03:29:51,42.805,6.029,CST-1368DR,8507,11899,15447,0.044,551
2019-07-28T03:32:53,42.805,6.029,CST-1368DR,8507,11898,15446,0.044,551
2019-07-28T03:35:55,42.805,6.029,CST-1368DR,8507,11899,15448,0.043,551
2019-07-28T03:38:56,42.805,6.029,CST-1368DR,8507,11899,15447,0.044,551
2019-07-28T03:41:58,42.805,6.029,CST-1368DR,8507,11899,15447,0.044,551
2019-07-28T03:45:00,42.805,6.029,CST-1368DR,8507,11899,15448,0.043,551
2019-07-28T03:48:01,42.805,6.029,CST-1368DR,8507,11899,15447,0.044,551
2019-07-28T03:51:03,42.805,6.029,CST-1368DR,8507,11899,15448,0.043,551
2019-07-28T03:54:05,42.805,6.029,CST-1368DR,8507,11898,15447,0.044,551
2019-07-28T03:57:06,42.805,6.029,CST-1368DR,8507,11899,15447,0.044,551
2019-07-28T04:00:08,42.805,6.029,CST-1368DR,8507,11899,15447,0.044,551
2019-07-28T04:03:09,42.805,6.029,CST-1368DR,8507,11896,15443,0.045,551
2019-07-28T04:06:11,42.805,6.029,CST-1368DR,8507,11898,15447,0.044,550
2019-07-28T04:09:13,42.805,6.029,CST-1368DR,8507,11898,15447,0.044,551
2019-07-28T04:12:14,42.805,6.029,CST-1368DR,8507,11898,15446,0.044,551
2019-07-28T04:15:16,42.805,6.029,CST-1368DR,8507,11896,15444,0.044,551
2019-07-28T04:18:18,42.805,6.029,CST-1368DR,8507,11897,15444,0.044,551
2019-07-28T04:21:20,42.805,6.029,CST-1368DR,8507,11898,15447,0.044,551
2019-07-28T04:24:21,42.805,6.029,CST-1368DR,8507,11899,15447,0.044,551
2019-07-28T04:27:23,42.805,6.029,CST-1368DR,8507,11896,15444,0.044,551
2019-07-28T04:30:25,42.805,6.029,CST-1368DR,8507,11898,15446,0.044,551
2019-07-28T04:33:27,42.805,6.029,CST-1368DR,8507,11899,15447,0.044,550
2019-07-28T04:36:28,42.805,6.029,CST-1368DR,8507,11899,15448,0.043,551
2019-07-28T04:39:30,42.805,6.029,CST-1368DR,8507,11898,15446,0.044,551
2019-07-28T04:42:32,42.805,6.029,CST-1368DR,8507,11897,15445,0.044,551
2019-07-28T04:45:33,42.805,6.029,CST-1368DR,8507,11899,15447,0.044,551
2019-07-28T04:48:35,42.805,6.029,CST-1368DR,8507,11898,15446,0.044,551
2019-07-28T04:51:36,42.805,6.029,CST-1368DR,8506,11896,15445,0.044,551
2019-07-28T04:54:38,42.805,6.029,CST-1368DR,8506,11897,15447,0.044,551
2019-07-28T04:57:40,42.805,6.029,CST-1368DR,8506,11897,15447,0.044,551
2019-07-28T05:00:42,42.805,6.029,CST-1368DR,8506,11897,15447,0.044,551
2019-07-28T05:03:43,42.805,6.029,CST-1368DR,8506,11898,15448,0.043,551
2019-07-28T05:06:45,42.805,6.029,CST-1368DR,8506,11898,15448,0.043,551
2019-07-28T05:09:46,42.805,6.029,CST-1368DR,8506,11897,15447,0.044,551
2019-07-28T05:12:48,42.805,6.029,CST-1368DR,8506,11897,15447,0.044,551
2019-07-28T05:15:50,42.805,6.029,CST-1368DR,8506,11898,15447,0.044,551
2019-07-28T05:18:51,42.805,6.029,CST-1368DR,8506,11898,15448,0.043,551
2019-07-28T05:21:53,42.805,6.029,CST-1368DR,8506,11897,15446,0.044,551
2019-07-28T05:24:55,42.805,6.029,CST-1368DR,8506,11898,15447,0.044,551
2019-07-28T05:27:57,42.805,6.029,CST-1368DR,8506,11898,15447,0.044,551
2019-07-28T05:30:58,42.805,6.029,CST-1368DR,8506,11898,15448,0.043,551
2019-07-28T05:34:00,42.805,6.029,CST-1368DR,8506,11896,15445,0.044,551
2019-07-28T05:37:02,42.805,6.029,CST-1368DR,8506,11898,15447,0.044,551
2019-07-28T05:40:03,42.805,6.029,CST-1368DR,8506,11897,15446,0.044,551
2019-07-28T05:43:05,42.805,6.029,CST-1368DR,8506,11897,15447,0.044,551
2019-07-28T05:46:06,42.805,6.029,CST-1368DR,8506,11898,15448,0.043,551
2019-07-28T05:49:08,42.805,6.029,CST-1368DR,8506,11898,15448,0.043,551
2019-07-28T05:52:10,42.805,6.029,CST-1368DR,8506,11897,15447,0.044,551
2019-07-28T05:55:11,42.805,6.029,CST-1368DR,8506,11895,15444,0.044,551
2019-07-28T05:58:13,42.805,6.029,CST-1368DR,8506,11896,15445,0.044,551
2019-07-28T06:01:15,42.805,6.029,CST-1368DR,8506,11896,15445,0.044,551
2019-07-28T06:04:16,42.805,6.029,CST-1368DR,8506,11896,15445,0.044,551
2019-07-28T06:07:18,42.805,6.029,CST-1368DR,8506,11897,15447,0.044,551
2019-07-28T06:10:19,42.805,6.029,CST-1368DR,8506,11897,15446,0.044,551
2019-07-28T06:13:21,42.805,6.029,CST-1368DR,8506,11897,15447,0.044,551
2019-07-28T06:16:23,42.805,6.029,CST-1368DR,8506,11897,15446,0.044,551
2019-07-28T06:19:24,42.805,6.029,CST-1368DR,8506,11898,15448,0.043,551
2019-07-28T06:22:26,42.805,6.029,CST-1368DR,8506,11897,15447,0.044,551
2019-07-28T06:25:28,42.805,6.029,CST-1368DR,8506,11894,15442,0.045,551
2019-07-28T06:28:29,42.805,6.029,CST-1368DR,8506,11897,15446,0.044,551
2019-07-28T06:31:31,42.805,6.029,CST-1368DR,8506,11896,15445,0.044,551
2019-07-28T06:34:33,42.805,6.029,CST-1368DR,8505,11895,15446,0.044,551
2019-07-28T06:37:34,42.805,6.029,CST-1368DR,8506,11897,15446,0.044,551
2019-07-28T06:40:36,42.805,6.029,CST-1368DR,8505,11895,15445,0.044,551
2019-07-28T06:43:38,42.805,6.029,CST-1368DR,8505,11897,15448,0.043,551
2019-07-28T06:46:39,42.805,6.029,CST-1368DR,8506,11895,15444,0.044,551
2019-07-28T06:49:41,42.805,6.029,CST-1368DR,8506,11895,15444,0.044,551
2019-07-28T06:52:43,42.805,6.029,CST-1368DR,8505,11896,15447,0.044,550
2019-07-28T06:55:44,42.805,6.029,CST-1368DR,8505,11895,15446,0.044,551
2019-07-28T06:58:46,42.805,6.029,CST-1368DR,8505,11895,15446,0.044,551
2019-07-28T07:01:48,42.805,6.029,CST-1368DR,8505,11897,15448,0.043,551
2019-07-28T07:04:49,42.805,6.029,CST-1368DR,8506,11896,15445,0.044,551
2019-07-28T07:07:51,42.805,6.029,CST-1368DR,8505,11897,15448,0.043,551
2019-07-28T07:10:52,42.805,6.029,CST-1368DR,8505,11897,15448,0.043,551
2019-07-28T07:13:54,42.805,6.029,CST-1368DR,8505,11897,15448,0.043,551
2019-07-28T07:16:56,42.805,6.029,CST-1368DR,8505,11897,15448,0.043,551
2019-07-28T07:19:57,42.805,6.029,CST-1368DR,8505,11897,15448,0.043,551
2019-07-28T07:22:59,42.805,6.029,CST-1368DR,8505,11897,15448,0.043,551
2019-07-28T07:26:01,42.805,6.029,CST-1368DR,8505,11895,15446,0.044,551
2019-07-28T07:29:02,42.805,6.029,CST-1368DR,8505,11896,15447,0.044,551
2019-07-28T07:32:04,42.805,6.029,CST-1368DR,8505,11895,15446,0.044,551
2019-07-28T07:35:06,42.805,6.029,CST-1368DR,8505,11896,15447,0.044,551
2019-07-28T07:38:07,42.805,6.029,CST-1368DR,8505,11896,15447,0.044,551
2019-07-28T07:41:09,42.805,6.029,CST-1368DR,8505,11896,15447,0.044,551
2019-07-28T07:44:10,42.805,6.029,CST-1368DR,8505,11896,15447,0.044,551
2019-07-28T07:47:12,42.805,6.029,CST-1368DR,8505,11896,15446,0.044,551
2019-07-28T07:50:14,42.805,6.029,CST-1368DR,8505,11895,15446,0.044,551
2019-07-28T07:53:15,42.805,6.029,CST-1368DR,8505,11896,15447,0.044,551
2019-07-28T07:56:17,42.805,6.029,CST-1368DR,8505,11895,15446,0.044,551
2019-07-28T07:59:19,42.805,6.029,CST-1368DR,8505,11896,15446,0.044,551
2019-07-28T08:02:20,42.805,6.029,CST-1368DR,8505,11896,15447,0.044,551
2019-07-28T08:05:22,42.805,6.029,CST-1368DR,8505,11895,15445,0.044,551
2019-07-28T08:08:23,42.805,6.029,CST-1368DR,8505,11895,15445,0.044,551
2019-07-28T08:11:25,42.805,6.029,CST-1368DR,8505,11896,15446,0.044,551
2019-07-28T08:14:27,42.805,6.029,CST-1368DR,8505,11895,15446,0.044,551
2019-07-28T08:17:28,42.805,6.029,CST-1368DR,8505,11895,15446,0.044,550
2019-07-28T08:20:30,42.805,6.029,CST-1368DR,8505,11896,15446,0.044,551
2019-07-28T08:23:32,42.805,6.029,CST-1368DR,8505,11894,15444,0.044,551
2019-07-28T08:26:33,42.805,6.029,CST-1368DR,8505,11896,15447,0.044,550
2019-07-28T08:29:35,42.805,6.029,CST-1368DR,8505,11895,15445,0.044,550
2019-07-28T08:32:37,42.805,6.029,CST-1368DR,8505,11894,15445,0.044,551
2019-07-28T08:35:38,42.805,6.029,CST-1368DR,8505,11895,15445,0.044,551
2019-07-28T08:38:40,42.805,6.029,CST-1368DR,8505,11894,15445,0.044,551
2019-07-28T08:41:42,42.805,6.029,CST-1368DR,8504,11893,15445,0.044,551
2019-07-28T08:44:43,42.805,6.029,CST-1368DR,8505,11895,15446,0.044,551
2019-07-28T08:47:45,42.805,6.029,CST-1368DR,8504,11894,15446,0.044,551
2019-07-28T08:50:47,42.805,6.029,CST-1368DR,8505,11894,15444,0.044,551
2019-07-28T08:53:48,42.805,6.029,CST-1368DR,8504,11896,15448,0.043,551
2019-07-28T08:56:50,42.805,6.029,CST-1368DR,8504,11894,15447,0.044,550
2019-07-28T08:59:51,42.805,6.029,CST-1368DR,8504,11894,15446,0.044,551
2019-07-28T09:02:53,42.805,6.029,CST-1368DR,8504,11894,15446,0.044,550
2019-07-28T09:05:55,42.805,6.029,CST-1368DR,8504,11895,15447,0.044,551
2019-07-28T09:08:57,42.805,6.029,CST-1368DR,8504,11894,15446,0.044,551
2019-07-28T09:11:58,42.805,6.029,CST-1368DR,8504,11893,15445,0.044,551
2019-07-28T09:15:00,42.805,6.029,CST-1368DR,8504,11894,15447,0.044,551
2019-07-28T09:18:01,42.805,6.029,CST-1368DR,8504,11894,15447,0.044,551
2019-07-28T09:21:03,42.805,6.029,CST-1368DR,8504,11894,15446,0.044,551
2019-07-28T09:24:05,42.805,6.029,CST-1368DR,8504,11894,15446,0.044,551
2019-07-28T09:27:06,42.805,6.029,CST-1368DR,8504,11894,15446,0.044,551
2019-07-28T09:30:08,42.805,6.029,CST-1368DR,8504,11893,15445,0.044,551
2019-07-28T09:33:10,42.805,6.029,CST-1368DR,8504,11894,15446,0.044,551
2019-07-28T09:36:11,42.805,6.029,CST-1368DR,8504,11895,15447,0.044,551
2019-07-28T09:39:13,42.805,6.029,CST-1368DR,8504,11895,15447,0.044,550
2019-07-28T09:42:15,42.805,6.029,CST-1368DR,8504,11895,15447,0.044,551
2019-07-28T09:45:16,42.805,6.029,CST-1368DR,8504,11894,15446,0.044,551
2019-07-28T09:48:18,42.805,6.029,CST-1368DR,8504,11895,15447,0.044,551
2019-07-28T09:51:19,42.805,6.029,CST-1368DR,8504,11894,15446,0.044,551
2019-07-28T09:54:21,42.805,6.029,CST-1368DR,8504,11894,15446,0.044,551
2019-07-28T09:57:23,42.805,6.029,CST-1368DR,8504,11894,15446,0.044,551
2019-07-28T10:00:25,42.805,6.029,CST-1368DR,8504,11893,15445,0.044,551
2019-07-28T10:03:27,42.805,6.029,CST-1368DR,8504,11894,15447,0.044,551
2019-07-28T10:06:28,42.805,6.029,CST-1368DR,8504,11894,15447,0.044,551
2019-07-28T10:09:30,42.805,6.029,CST-1368DR,8504,11894,15447,0.044,551
2019-07-28T10:12:32,42.805,6.029,CST-1368DR,8504,11894,15446,0.044,551
2019-07-28T10:15:33,42.805,6.029,CST-1368DR,8504,11894,15447,0.044,551
2019-07-28T10:18:35,42.805,6.029,CST-1368DR,8504,11893,15445,0.044,551
2019-07-28T10:21:37,42.805,6.029,CST-1368DR,8504,11894,15446,0.044,551
2019-07-28T10:24:38,42.805,6.029,CST-1368DR,8504,11893,15445,0.044,551
2019-07-28T10:27:40,42.805,6.029,CST-1368DR,8504,11894,15446,0.044,551
2019-07-28T10:30:41,42.805,6.029,CST-1368DR,8504,11893,15445,0.044,551
2019-07-28T10:33:43,42.805,6.029,CST-1368DR,8504,11892,15444,0.044,551
2019-07-28T10:36:45,42.805,6.029,CST-1368DR,8504,11894,15446,0.044,551
2019-07-28T10:39:46,42.805,6.029,CST-1368DR,8504,11894,15446,0.044,551
2019-07-28T10:42:48,42.805,6.029,CST-1368DR,8504,11894,15446,0.044,550
2019-07-28T10:45:50,42.805,6.029,CST-1368DR,8504,11893,15444,0.044,551
2019-07-28T10:48:51,42.805,6.029,CST-1368DR,8504,11893,15445,0.044,550
2019-07-28T10:51:53,42.805,6.029,CST-1368DR,8504,11893,15445,0.044,551
2019-07-28T10:54:55,42.805,6.029,CST-1368DR,8503,11892,15446,0.044,551
2019-07-28T10:57:56,42.805,6.029,CST-1368DR,8503,11893,15446,0.044,551
2019-07-28T11:00:58,42.805,6.029,CST-1368DR,8503,11888,15440,0.045,551
2019-07-28T11:04:00,42.805,6.029,CST-1368DR,8503,11893,15447,0.044,551
2019-07-28T11:07:01,42.805,6.029,CST-1368DR,8503,11894,15448,0.043,551
2019-07-28T11:10:03,42.805,6.029,CST-1368DR,8503,11893,15447,0.044,551
2019-07-28T11:13:04,42.805,6.029,CST-1368DR,8503,11893,15447,0.044,551
2019-07-28T11:16:06,42.805,6.029,CST-1368DR,8503,11892,15446,0.044,551
2019-07-28T11:19:08,42.805,6.029,CST-1368DR,8503,11893,15447,0.044,551
2019-07-28T11:22:09,42.805,6.029,CST-1368DR,8503,11894,15447,0.044,551
2019-07-28T11:25:11,42.805,6.029,CST-1368DR,8503,11893,15447,0.044,551
2019-07-28T11:28:13,42.805,6.029,CST-1368DR,8503,11894,15447,0.044,551
2019-07-28T11:31:14,42.805,6.029,CST-1368DR,8503,11892,15446,0.044,551
2019-07-28T11:34:16,42.805,6.029,CST-1368DR,8503,11892,15446,0.044,551
2019-07-28T11:37:18,42.805,6.029,CST-1368DR,8503,11893,15447,0.044,551
2019-07-28T11:40:19,42.805,6.029,CST-1368DR,8503,11893,15447,0.044,551
2019-07-28T11:43:21,42.805,6.029,CST-1368DR,8503,11893,15447,0.044,550
2019-07-28T11:46:22,42.805,6.029,CST-1368DR,8503,11891,15444,0.044,551
2019-07-28T11:49:24,42.805,6.029,CST-1368DR,8503,11891,15444,0.044,551
2019-07-28T11:52:26,42.805,6.029,CST-1368DR,8503,11891,15444,0.044,550
2019-07-28T11:55:27,42.805,6.029,CST-1368DR,8503,11891,15444,0.044,551
2019-07-28T11:58:29,42.805,6.029,CST-1368DR,8503,11893,15447,0.044,551
2019-07-28T12:01:31,42.805,6.029,CST-1368DR,8503,11891,15444,0.044,551
2019-07-28T12:04:32,42.805,6.029,CST-1368DR,8503,11892,15445,0.044,551
2019-07-28T12:07:34,42.805,6.029,CST-1368DR,8503,11892,15446,0.044,551
2019-07-28T12:10:36,42.805,6.029,CST-1368DR,8503,11893,15447,0.044,551
2019-07-28T12:13:37,42.805,6.029,CST-1368DR,8503,11893,15446,0.044,551
2019-07-28T12:16:39,42.805,6.029,CST-1368DR,8503,11892,15446,0.044,551
2019-07-28T12:19:40,42.805,6.029,CST-1368DR,8503,11891,15444,0.044,551
2019-07-28T12:22:42,42.805,6.029,CST-1368DR,8503,11892,15445,0.044,551
2019-07-28T12:25:44,42.805,6.029,CST-1368DR,8503,11892,15445,0.044,551
2019-07-28T12:28:45,42.805,6.029,CST-1368DR,8503,11891,15443,0.045,551
2019-07-28T12:31:47,42.805,6.029,CST-1368DR,8503,11891,15444,0.044,551
2019-07-28T12:34:49,42.805,6.029,CST-1368DR,8503,11890,15443,0.045,551
2019-07-28T12:37:50,42.805,6.029,CST-1368DR,8503,11891,15443,0.045,550
2019-07-28T12:40:52,42.805,6.029,CST-1368DR,8503,11893,15447,0.044,551
2019-07-28T12:43:54,42.805,6.029,CST-1368DR,8503,11892,15445,0.044,551
2019-07-28T12:46:55,42.805,6.029,CST-1368DR,8503,11892,15445,0.044,551
2019-07-28T12:49:57,42.805,6.029,CST-1368DR,8503,11890,15443,0.045,551
2019-07-28T12:52:58,42.805,6.029,CST-1368DR,8503,11892,15445,0.044,551
2019-07-28T12:56:00,42.805,6.029,CST-1368DR,8503,11891,15444,0.044,551
2019-07-28T12:59:02,42.805,6.029,CST-1368DR,8503,11892,15446,0.044,551
2019-07-28T13:02:04,42.805,6.029,CST-1368DR,8502,11892,15447,0.044,551
2019-07-28T13:05:05,42.805,6.029,CST-1368DR,8503,11892,15445,0.044,551
2019-07-28T13:08:07,42.805,6.029,CST-1368DR,8502,11889,15443,0.045,551
2019-07-28T13:11:08,42.805,6.029,CST-1368DR,8502,11892,15447,0.044,551
2019-07-28T13:14:10,42.805,6.029,CST-1368DR,8502,11892,15446,0.044,550
2019-07-28T13:17:12,42.805,6.029,CST-1368DR,8502,11893,15448,0.043,551
2019-07-28T13:20:14,42.805,6.029,CST-1368DR,8502,11892,15447,0.044,551
2019-07-28T13:23:15,42.805,6.029,CST-1368DR,8502,11886,15438,0.046,551
2019-07-28T13:26:17,42.805,6.029,CST-1368DR,8502,11891,15446,0.044,551
2019-07-28T13:29:19,42.805,6.029,CST-1368DR,8502,11890,15444,0.044,551
2019-07-28T13:32:20,42.805,6.029,CST-1368DR,8502,11890,15445,0.044,551
2019-07-28T13:35:22,42.805,6.029,CST-1368DR,8502,11891,15445,0.044,551
2019-07-28T13:38:24,42.805,6.029,CST-1368DR,8502,11893,15448,0.043,551
2019-07-28T13:41:25,42.805,6.029,CST-1368DR,8502,11892,15447,0.044,550
2019-07-28T13:44:27,42.805,6.029,CST-1368DR,8502,11892,15446,0.044,551
2019-07-28T13:47:29,42.805,6.029,CST-1368DR,8502,11891,15446,0.044,551
2019-07-28T13:50:30,42.805,6.029,CST-1368DR,8502,11892,15446,0.044,551
2019-07-28T13:53:32,42.805,6.029,CST-1368DR,8502,11892,15447,0.044,551
2019-07-28T13:56:34,42.805,6.029,CST-1368DR,8502,11892,15446,0.044,551
2019-07-28T13:59:35,42.805,6.029,CST-1368DR,8502,11892,15446,0.044,551
2019-07-28T14:02:37,42.805,6.029,CST-1368DR,8502,11891,15445,0.044,551
2019-07-28T14:05:39,42.805,6.029,CST-1368DR,8502,11891,15445,0.044,551
2019-07-28T14:08:40,42.805,6.029,CST-1368DR,8502,11891,15446,0.044,551
2019-07-28T14:11:42,42.805,6.029,CST-1368DR,8502,11891,15445,0.044,550
2019-07-28T14:14:44,42.805,6.029,CST-1368DR,8502,11890,15444,0.044,551
2019-07-28T14:17:45,42.805,6.029,CST-1368DR,8502,11887,15441,0.045,551
2019-07-28T14:20:47,42.805,6.029,CST-1368DR,8502,11889,15443,0.045,551
2019-07-28T14:23:48,42.805,6.029,CST-1368DR,8502,11887,15440,0.045,550
2019-07-28T14:26:50,42.805,6.029,CST-1368DR,8502,11891,15446,0.044,551
2019-07-28T14:29:52,42.805,6.029,CST-1368DR,8502,11891,15445,0.044,551
2019-07-28T14:32:53,42.805,6.029,CST-1368DR,8501,11891,15447,0.044,551
2019-07-28T14:35:55,42.805,6.029,CST-1368DR,8501,11890,15446,0.044,551
2019-07-28T14:38:57,42.805,6.029,CST-1368DR,8501,11889,15444,0.044,550
2019-07-28T14:41:58,42.805,6.029,CST-1368DR,8501,11891,15447,0.044,551
2019-07-28T14:45:00,42.805,6.029,CST-1368DR,8501,11888,15444,0.044,551
2019-07-28T14:48:01,42.805,6.029,CST-1368DR,8501,11890,15446,0.044,551
2019-07-28T14:51:03,42.805,6.029,CST-1368DR,8501,11891,15447,0.044,551
2019-07-28T14:54:05,42.805,6.029,CST-1368DR,8501,11884,15438,0.046,551
2019-07-28T14:57:06,42.805,6.029,CST-1368DR,8501,11889,15444,0.044,551
2019-07-28T15:00:08,42.805,6.029,CST-1368DR,8501,11890,15446,0.044,551
2019-07-28T15:03:10,42.805,6.029,CST-1368DR,8501,11891,15448,0.043,551
2019-07-28T15:06:11,42.805,6.029,CST-1368DR,8501,11890,15446,0.044,551
2019-07-28T15:09:13,42.805,6.029,CST-1368DR,8501,11891,15447,0.044,551
2019-07-28T15:12:15,42.805,6.029,CST-1368DR,8501,11889,15445,0.044,551
2019-07-28T15:15:16,42.805,6.029,CST-1368DR,8501,11891,15447,0.044,551
2019-07-28T15:18:18,42.805,6.029,CST-1368DR,8501,11884,15438,0.046,551
2019-07-28T15:21:20,42.805,6.029,CST-1368DR,8501,11890,15446,0.044,551
2019-07-28T15:24:21,42.805,6.029,CST-1368DR,8501,11889,15445,0.044,551
2019-07-28T15:27:24,42.805,6.029,CST-1368DR,8501,11888,15444,0.044,551
2019-07-28T15:30:25,42.805,6.029,CST-1368DR,8501,11889,15445,0.044,551
2019-07-28T15:33:27,42.805,6.029,CST-1368DR,8501,11889,15445,0.044,551
2019-07-28T15:36:29,42.805,6.029,CST-1368DR,8501,11889,15445,0.044,551
2019-07-28T15:39:31,42.805,6.029,CST-1368DR,8501,11887,15442,0.045,551
2019-07-28T15:42:32,42.805,6.029,CST-1368DR,8501,11889,15445,0.044,550
2019-07-28T15:45:34,42.805,6.029,CST-1368DR,8501,11890,15446,0.044,550
2019-07-28T15:48:35,42.805,6.029,CST-1368DR,8501,11889,15445,0.044,551
2019-07-28T15:51:37,42.805,6.029,CST-1368DR,8501,11890,15446,0.044,550
2019-07-28T15:54:39,42.805,6.029,CST-1368DR,8501,11890,15446,0.044,551
2019-07-28T15:57:40,42.805,6.029,CST-1368DR,8501,11884,15438,0.046,551
2019-07-28T16:00:42,42.805,6.029,CST-1368DR,8501,11889,15444,0.044,551
2019-07-28T16:03:44,42.805,6.029,CST-1368DR,8501,11886,15441,0.045,551
2019-07-28T16:06:45,42.805,6.029,CST-1368DR,8501,11889,15445,0.044,551
2019-07-28T16:09:47,42.805,6.029,CST-1368DR,8501,11885,15439,0.046,551
2019-07-28T16:12:49,42.805,6.029,CST-1368DR,8501,11890,15446,0.044,551
2019-07-28T16:15:50,42.805,6.029,CST-1368DR,8501,11889,15444,0.044,551
2019-07-28T16:18:52,42.805,6.029,CST-1368DR,8500,11885,15441,0.045,551
2019-07-28T16:21:54,42.805,6.029,CST-1368DR,8501,11890,15446,0.044,551
2019-07-28T16:24:56,42.805,6.029,CST-1368DR,8501,11888,15443,0.045,551
2019-07-28T16:27:57,42.805,6.029,CST-1368DR,8500,11888,15445,0.044,551
2019-07-28T16:30:59,42.805,6.029,CST-1368DR,8500,11887,15444,0.044,551
2019-07-28T16:34:00,42.805,6.029,CST-1368DR,8500,11890,15447,0.044,551
2019-07-28T16:37:02,42.805,6.029,CST-1368DR,8500,11889,15446,0.044,551